Location: *
(43.1283°S, 86.5379°E)
Time: 08:59:18
(UTC+00:00)

Daily predictions for brighter satellites

Satellite Brightness Start Highest point End
(mag) Time Altitude Azimuth Time Altitude Azimuth Time Altitude Azimuth
USA 267 3.4 12:25:29 10° SE 12:32:08 84° SW 12:38:45 10° NW
USA 281 3.3 12:29:08 10° NE 12:35:40 69° ESE 12:42:15 10° SSW
PSLV R/B 3.9 12:33:58 10° NNE 12:38:02 72° ESE 12:42:10 10° S
Cosmos 1777 Rocket 4.4 12:34:55 10° SSW 12:40:16 71° WNW 12:45:32 10° N
Cosmos 2184 Rocket 4.1 12:39:29 10° S 12:45:58 86° E 12:52:23 10° N
Cosmos 1656 Rocket 4.3 12:42:24 10° SSW 12:48:05 63° WNW 12:53:42 10° N
Cosmos 1238 Rocket 3.7 12:43:10 10° S 12:48:32 74° E 12:54:45 10° NNE
FengYun 1-2 T 4.4 12:43:14 10° SSE 12:48:51 84° WSW 12:54:22 10° NNW
CORIOLIS 4.2 12:45:15 10° SSE 12:50:48 83° ENE 12:56:18 10° NNW
Cosmos 1939 Rocket 3.3 12:47:01 10° S 12:51:12 71° WSW 12:55:16 10° NNW
MOS 1-B 4.4 12:47:47 10° SSE 12:53:38 63° ENE 12:59:24 10° N
deb Chang Zheng 4 3.5 12:50:52 10° SSE 12:55:16 68° ENE 12:59:36 10° N
Cosmos 2327 Rocket 4.4 12:50:48 10° S 12:56:57 67° E 13:03:02 10° NNE
Lacrosse 5 2.6 12:56:03 10° N 13:00:36 34° NE 13:05:12 10° ESE
ATLAS 3B R/B 3.8 12:54:42 10° SSW 13:00:42 29° SE 13:05:31 14° E
Cosmos 468 Rocket 4.2 12:57:06 10° N 13:02:03 46° ENE 13:07:07 10° SSE
CZ-4 R/B 2.7 12:59:11 10° SE 13:02:14 19° E 13:05:11 10° NE
Cosmos 1295 Rocket 4.4 12:56:39 10° S 13:02:49 72° E 13:08:56 10° NNE
Cosmos 2154 Rocket 4.0 12:58:08 10° S 13:04:30 84° E 13:10:50 10° N
USA 234 3.3 12:58:19 10° ENE 13:04:53 73° SE 13:11:30 10° SW
PSLV R/B 4.5 13:01:40 10° S 13:05:23 57° WSW 13:09:07 10° NNW
CZ-4B DEB 4.4 12:59:53 10° SSE 13:05:27 78° WSW 13:10:56 10° NNW
Cosmos 2084 3.9 13:01:18 10° NW 13:06:01 76° SW 13:10:41 10° SE
Okean O Rocket 1.8 13:02:46 10° SSE 13:07:14 53° E 13:11:37 10° N
NOSS 3-4 (A) 4.3 13:00:41 10° NW 13:09:05 79° SW 13:17:03 10° SE
NOSS 3-4 (C) 4.3 13:00:48 10° NW 13:09:12 80° SW 13:17:11 10° SE
SMAP 4.2 13:06:11 10° S 13:10:44 48° WSW 13:15:14 10° NW
SWAS 4.4 13:06:35 10° SSW 13:10:57 76° ESE 13:15:13 10° NNE
Cosmos 1066 Rocket 4.1 13:05:48 10° N 13:11:16 80° E 13:16:58 10° SSE
Cosmos 1300 Rocket 4.1 13:09:28 10° S 13:13:42 37° ESE 13:17:26 12° NE
ATLAS 2AS CENTAUR R/B 2.5 13:07:48 10° NNW 13:13:56 58° ENE 13:20:14 10° SE
Cosmos 1733 3.3 13:10:25 10° S 13:14:12 53° E 13:17:56 10° NNE
Cosmos 1937 Rocket 4.2 13:09:41 10° S 13:14:36 35° ESE 13:17:52 18° ENE
SAR-Lupe-4 4.1 13:13:25 15° NE 13:16:06 40° ESE 13:19:35 10° S
H-2A R/B 1.9 13:11:05 10° SSE 13:16:09 71° ENE 13:21:05 10° N
Cosmos 2181 Rocket 4.5 13:10:46 10° NNE 13:16:39 40° E 13:22:38 10° SSE
Meteor 1-15 Rocket 4.3 13:13:27 10° S 13:19:17 65° ESE 13:24:56 10° NNE
SL-8 Rocket 4.3 13:15:48 10° S 13:21:47 46° ESE 13:27:42 10° NNE
GPS 2-04 Rocket1 4.4 13:19:32 10° WNW 13:21:59 18° NNW 13:23:39 13° NNE
Cosmos 1315 Rocket 2.7 13:18:22 10° S 13:22:24 74° E 13:26:20 10° NNE
Cosmos 1689 Rocket 1.8 13:20:11 10° NNE 13:22:59 89° WNW 13:25:50 10° SSW
Nadezhda 1 Rocket 4.4 13:19:39 10° NNW 13:25:47 67° W 13:32:07 10° S
Cosmos 1980 Rocket 4.3 13:29:03 10° SE 13:29:20 10° SE 13:29:36 10° SE
H-2A R/B 2.5 13:26:32 10° SSE 13:30:29 52° E 13:34:29 10° N
ARGOS 3.2 13:25:28 10° SSE 13:30:52 59° E 13:36:11 10° N
YAOGAN 1 3.0 13:27:42 10° SSE 13:31:51 40° E 13:35:57 10° NNE
Cosmos 540 Rocket 3.6 13:27:37 10° N 13:32:32 49° ENE 13:37:31 10° SSE
SAR-Lupe-1 4.0 13:30:20 14° NNE 13:33:24 79° ESE 13:37:05 10° S
CZ-2C R/B 3.1 13:32:14 10° N 13:33:08 12° N 13:33:08 12° N
BREEZE-M DEB (TANK) 3.6 13:30:41 10° WSW 13:34:03 86° SSE 13:39:30 22° ENE
TIMED 4.4 13:29:51 10° N 13:34:13 69° ENE 13:38:38 10° SSE
Meteor 2-10 4.3 13:31:56 10° S 13:37:28 56° ESE 13:41:45 17° NNE
Okean 2 Rocket 3.3 13:35:34 10° S 13:40:01 48° ESE 13:41:45 31° NE
Cosmos 1726 3.0 13:38:10 10° S 13:41:10 31° ESE 13:41:10 31° ESE
Tiangong 3.2 13:40:49 10° NNW 13:42:02 16° N 13:42:02 16° N
EXPRESS MD2 4.3 13:36:15 10° WSW 13:43:17 51° S 13:44:55 32° ESE
Sich 1 Rocket 3.6 13:38:46 10° S 13:43:24 74° E 13:46:52 17° NNE
ERS-2 2.6 13:44:11 41° ESE 13:44:15 41° ESE 13:47:47 10° S
Meteor 1-22 Rocket 4.1 13:39:21 10° S 13:44:43 61° ESE 13:48:02 23° NNE
Cosmos 990 Rocket 4.2 13:42:12 10° SSW 13:47:25 71° WNW 13:52:10 12° N
Cosmos 2341 Rocket 4.0 13:41:52 10° S 13:48:12 90° NE 13:54:28 10° N
Okean 1 Rocket 4.4 13:47:02 10° SSE 13:49:58 24° SE 13:49:58 24° SE
SJ 16-02 4.1 13:48:06 10° SW 13:51:15 19° W 13:54:24 10° NW
X-37B 0.9 13:48:36 10° W 13:51:49 59° S 13:52:03 57° SSE
RESURS DK-1 2.2 13:48:13 10° NNW 13:52:21 74° ENE 13:56:34 10° SSE
CZ-2C R/B 4.1 13:54:57 42° E 13:55:34 44° ESE 14:00:09 10° S
CZ-4B R/B 4.0 13:51:37 10° S 13:56:49 51° WSW 14:01:56 10° NW
Cosmos 1842 3.1 13:55:00 21° N 13:57:31 78° E 14:01:29 10° S
Cosmos 1898 Rocket 3.6 13:54:04 10° SSW 13:59:21 74° WNW 14:02:43 22° N
Cosmos 372 Rocket 4.2 13:55:56 10° S 14:01:08 52° ESE 14:02:03 46° E
Cosmos 1697 Rocket 3.8 13:56:34 10° S 14:01:24 27° SE 14:01:45 27° ESE
Cosmos 1763 Rocket 4.3 13:57:03 10° NW 14:02:02 51° WSW 14:07:09 10° S
Cosmos 1656 4.0 13:56:31 10° SSW 14:02:07 50° ESE 14:03:18 43° E
Cosmos 2366 rocket 3.9 13:56:03 10° S 14:02:29 77° E 14:06:49 21° NNE
Okean-O 3.2 13:59:50 10° SSE 14:03:04 39° SE 14:03:04 39° SE
Cosmos 2218 Rocket 3.9 13:59:47 10° S 14:06:09 84° E 14:10:29 21° N
Cosmos 1470 3.4 14:04:41 10° S 14:07:38 43° SSE 14:07:38 43° SSE
Cosmos 1378 Rocket 4.3 14:13:26 40° SE 14:13:26 40° SE 14:16:31 10° SSE
Cosmos 2151 Rocket 3.5 14:08:19 10° S 14:12:55 87° E 14:13:40 62° NNE
Nadezhda 3 Rocket 4.5 14:15:14 39° ESE 14:15:14 39° ESE 14:20:28 10° SSE
BREEZE-M DEB (TANK) 3.9 14:14:06 10° WNW 14:15:32 29° W 14:15:32 29° W
Meteor 1-21 4.1 14:16:18 36° N 14:18:36 69° E 14:24:17 10° SSE
Cosmos 1674 Rocket 3.9 14:29:22 59° S 14:29:22 59° S 14:33:01 10° S
CZ-4 R/B 3.0 14:33:30 10° S 14:37:19 35° WSW 14:41:02 10° NW
Cosmos 841 Rocket 4.1 14:32:36 10° NW 14:37:41 55° WSW 14:42:48 10° SSE
IRS-1C Rocket 4.3 14:34:06 10° S 14:39:26 70° WSW 14:43:20 19° NNW
CSL-04 Rocket 4.1 14:37:46 10° SSE 14:41:45 50° SSE 14:41:45 50° SSE
Lacrosse 5 2.7 14:38:29 10° WNW 14:43:27 49° SW 14:45:02 36° SSE
MetOp-A 4.1 14:38:52 10° SSE 14:44:02 80° S 14:44:02 80° S
ATLAS 5 CENTAUR R/B 3.7 14:41:01 10° SSW 14:45:15 23° SSE 14:45:15 23° SSE
Cosmos 1814 Rocket 4.1 14:42:00 10° NNW 14:47:19 71° WSW 14:52:26 10° SSE
USA 234 4.4 14:45:33 26° NNW 14:48:11 34° NW 14:54:06 10° WSW
ATLAS 3B R/B 2.6 14:45:12 10° SW 14:52:08 77° WNW 14:52:48 70° N
Cosmos 1821 Rocket 3.9 14:53:34 10° S 14:59:30 82° SW 14:59:30 82° SW
ATLAS 2AS CENTAUR R/B 4.1 14:59:31 10° WNW 15:05:09 33° SW 15:10:59 10° SSE
Cosmos 1980 Rocket 3.4 15:09:17 10° SSW 15:12:39 33° S 15:12:39 33° S
SL-16 R/B 4.3 15:19:55 10° S 15:21:54 16° SSE 15:21:54 16° SSE
Cosmos 1697 Rocket 4.2 15:40:08 10° SW 15:43:31 34° SW 15:43:31 34° SW
Cosmos 2322 Rocket 4.5 15:56:34 10° S 15:58:15 17° S 15:58:15 17° S
Cosmos 2263 Rocket 4.5 20:04:33 17° ESE 20:04:33 17° ESE 20:06:52 10° SE
ADEOS Rocket 4.1 20:22:19 10° SSE 20:25:52 36° SE 20:25:52 36° SE
USA 215 4.4 20:24:22 10° SE 20:30:06 34° SSW 20:30:06 34° SSW
SL-16 R/B 3.4 20:27:58 10° SSE 20:33:20 44° E 20:33:20 44° E
ATLAS 2AS CENTAUR R/B 4.0 20:39:01 10° SSW 20:45:22 38° SE 20:52:05 10° ENE
Cosmos 2297 Rocket 4.1 21:03:20 20° SSW 21:03:20 20° SSW 21:05:52 10° S
Cosmos 2251 Rocket 4.4 21:03:48 45° E 21:03:48 45° E 21:08:12 10° SSE
Cosmos 1092 Rocket 4.1 21:07:47 73° E 21:07:49 73° E 21:14:09 10° SSE
ALOS 4.0 21:11:31 26° S 21:11:31 26° S 21:13:36 10° S
FENGYUN 3A 4.5 21:16:06 42° SSW 21:16:06 42° SSW 21:19:42 10° SSW
Cosmos 2227 Rocket 4.0 21:24:24 20° SSW 21:24:24 20° SSW 21:27:21 10° S
Cosmos 614 Rocket 3.9 21:37:44 79° S 21:37:44 79° S 21:42:39 10° SSE
Cosmos 2195 Rocket 4.3 21:37:33 69° W 21:37:51 70° W 21:44:05 10° S
Cosmos 2227 4.1 21:38:12 77° NW 21:38:38 87° WSW 21:44:25 10° SSE
Lacrosse 5 4.3 21:44:18 10° NNE 21:44:18 10° NNE 21:44:22 10° NNE
Cosmos 407 Rocket 4.4 21:37:21 30° NNE 21:39:35 46° ENE 21:44:45 10° SSE
Cosmos 2292 Rocket 4.1 21:43:47 57° N 21:44:54 84° E 21:51:28 10° S
Cosmos 2263 Rocket 2.2 21:46:15 62° WSW 21:46:19 62° WSW 21:51:57 10° SSE
Cosmos 1428 Rocket 4.4 21:51:14 55° WNW 21:52:12 62° W 21:58:23 10° S
Cosmos 1809 Rocket 4.3 21:51:26 44° NNW 21:53:32 78° W 21:59:50 10° S
Cosmos 2026 Rocket 4.0 21:53:14 51° NW 21:54:37 62° W 22:01:00 10° S
Meteor 2-21 4.4 21:52:30 32° N 21:55:41 88° W 22:02:00 10° S
H-2A R/B 4.5 21:57:19 10° NE 22:00:49 34° ESE 22:04:20 10° S
Cosmos 1553 Rocket 3.8 22:00:51 10° S 22:07:02 85° W 22:13:09 10° N
SL-24 R/B 4.1 22:05:52 10° SSE 22:09:39 61° E 22:11:13 31° N
Meteor 2-21 Rocket 4.4 22:05:28 15° N 22:10:50 89° W 22:17:11 10° S
Cosmos 1408 Rocket 4.5 22:12:28 33° SW 22:12:28 33° SW 22:15:38 10° S
ADEOS Rocket 4.0 22:08:39 10° SSW 22:12:49 24° WSW 22:12:49 24° WSW
Sich 1 3.7 22:09:16 10° N 22:13:36 55° E 22:17:56 10° SSE
Cosmos 1943 3.2 22:08:35 10° SSW 22:14:11 57° WNW 22:19:45 10° N
Cosmos 1805 Rocket 3.8 22:10:59 19° N 22:14:13 73° E 22:18:44 10° SSE
Lacrosse 5 rocket 3.5 22:14:36 12° SSW 22:15:11 12° SSW 22:16:47 10° S
Cosmos 1500 Rocket 3.5 22:15:07 52° WNW 22:15:50 61° W 22:20:18 10° S
SL-16 R/B 3.3 22:11:54 10° S 22:17:21 32° WSW 22:18:26 30° W
CBERS 1 LM4 rocket 4.4 22:15:07 10° NNE 22:20:13 87° WNW 22:25:11 10° SSW
Cosmos 1603 3.8 22:15:34 10° SW 22:21:03 50° WNW 22:26:27 10° N
SL-4 R/B 3.5 22:18:48 18° SW 22:22:06 41° SSE 22:26:42 10° E
Cosmos 1515 4.0 22:19:48 10° S 22:23:39 66° E 22:27:26 10° NNE
Meteor 1-25 Rocket 4.4 22:18:37 10° N 22:24:20 75° E 22:30:03 10° SSE
Meteor 1-31 Rocket 2.8 22:26:20 10° NNE 22:30:11 82° ESE 22:34:05 10° S
Cosmos 1655 Rocket 4.1 22:24:36 10° N 22:30:57 87° E 22:37:26 10° S
Cosmos 1844 Rocket 2.9 22:28:28 10° NNW 22:34:01 71° ENE 22:39:40 10° SSE
ADEOS 3.7 22:28:57 10° NNE 22:34:12 80° ESE 22:39:31 10° SSW
Okean 1 4.0 22:31:17 10° S 22:35:20 58° E 22:39:18 10° NNE
ATLAS 2AS CENTAUR R/B 2.8 22:29:44 10° SW 22:36:33 56° WNW 22:43:48 10° NNE
Envisat 3.0 22:31:30 10° NNE 22:36:38 88° W 22:41:49 10° SSW
Hubble Space Telescope 3.2 22:36:25 10° N 22:37:04 11° N 22:37:56 10° N
USA 305 3.2 22:40:45 22° NW 22:43:26 66° NE 22:47:46 10° ESE
Cosmos 676 Rocket 4.2 22:40:39 10° NNW 22:45:54 77° ENE 22:51:17 10° SSE
Cosmos 2315 Rocket 4.3 22:40:10 10° S 22:46:32 72° E 22:52:52 10° NNE
Cosmos 1602 3.8 22:45:45 12° NNW 22:49:13 57° W 22:53:07 10° S
USA 307 3.1 22:52:55 17° NW 22:56:12 74° NE 23:00:32 10° SE
Cosmos 1500 3.1 22:52:56 10° N 22:56:48 82° W 23:00:46 10° S
Meteor 1-18 Rocket 4.5 22:51:07 10° S 22:57:10 82° E 23:03:02 10° NNE
Meteor PRIRODA 4.2 22:54:03 10° NNE 22:57:46 63° ESE 23:01:31 10° S
Cosmos 2266 Rocket 3.9 22:51:52 10° NNW 22:57:52 64° W 23:04:03 10° S
Meteor 1-20 Rocket 4.3 22:53:55 10° NNW 22:59:16 52° WSW 23:04:48 10° S
Cosmos 2228 Rocket 3.7 22:55:24 10° SSW 22:59:28 35° W 23:03:31 10° NNW
Cosmos 1607 3.9 22:54:16 13° NW 22:59:44 66° SW 23:05:52 10° SSE
Spot 1 4.1 22:56:03 10° S 23:00:24 71° WSW 23:04:56 10° NNW
MOS 1 Rocket 3.6 22:56:21 10° SSE 23:01:53 88° WSW 23:07:07 10° NNW
Cosmos 1340 Rocket 2.8 22:59:10 10° N 23:03:06 89° E 23:07:07 10° S
NOAA 11 4.5 22:58:33 10° NNE 23:03:59 74° ESE 23:09:28 10° S
Cosmos 1470 Rocket 4.4 23:02:49 10° N 23:07:05 54° E 23:11:23 10° SSE
S3M 4.4 23:02:48 10° SSW 23:08:49 44° W 23:14:50 10° NNW
CZ-2C R/B 4.0 23:05:14 10° NNE 23:10:24 53° ESE 23:15:21 10° S
Cosmos 1666 Rocket 3.6 23:06:14 10° NNW 23:10:37 64° W 23:15:08 10° S
USA 306 2.9 23:07:27 14° NW 23:11:12 80° SW 23:15:34 10° SE
YAOGAN 6 3.2 23:08:43 10° NNW 23:11:55 31° W 23:15:10 10° SSW
CZ-4C R/B 4.3 23:09:31 10° S 23:13:29 32° WSW 23:17:17 10° NW
Cosmos 1954 Rocket 4.1 23:10:09 10° NW 23:15:22 58° WSW 23:20:41 10° SSE
USA 308 2.9 23:11:24 12° NW 23:15:26 81° SW 23:19:49 10° SE
Cosmos 1140 Rocket 4.4 23:11:46 12° WNW 23:15:49 29° WSW 23:20:26 10° S
Meteor 1-5 Rocket 4.4 23:13:56 10° N 23:19:25 78° E 23:25:12 10° SSE
Cosmos 1844 3.8 23:14:20 10° NW 23:20:00 63° WSW 23:25:39 10° SSE
Cosmos 468 Rocket 4.1 23:22:53 10° SSW 23:28:18 87° WNW 23:33:39 10° NNE
Cosmos 2263 Rocket 4.1 23:29:18 10° WSW 23:31:29 12° SW 23:33:41 10° SSW
Meteor 2-4 Rocket 3.9 23:27:24 10° SSW 23:33:25 74° W 23:39:21 10° N
H-2A R/B 4.2 23:32:22 10° NW 23:35:01 18° W 23:37:42 10° SW
Cosmos 1939 Rocket 3.3 23:33:20 10° NNE 23:37:27 72° ESE 23:41:40 10° S
Cosmos 1666 3.0 23:36:20 10° NNW 23:40:05 46° WSW 23:43:54 10° S
Milstar 3 4.2 23:36:48 10° WNW 23:42:46 24° N 23:48:00 10° NE
